Location: Krakow
(50.0830°N, 19.9170°E)
Time: 16:51:54
(UTC+02:00)

Courier 1B - Pass Details

Date: 20 March 2026
Orbit: 962 x 1209 km, 28.3° (Epoch: 19 April)

Event Time Altitude Azimuth Distance (km) Brightness Sun altitude
Rises 08:12:02 0° 222° (SW) 4,037 10.6 22.1°
Reaches altitude 10° 08:17:20 10° 192° (SSW) 3,021 10.4 22.8°
Maximum altitude 08:19:36 12° 174° (S) 2,878 10.6 23.1°
Drops below altitude 10° 08:21:49 10° 156° (SSE) 2,966 11.1 23.4°
Sets 08:26:52 0° 126° (SE) 3,856 12.0 24.1°
